OSCAR 14 (UOSAT 3)

导读

OSCAR 14(又称UOSAT 3)是英国于1990年1月22日发射的业余无线电卫星,属于AMSAT-OSCAR系列第二阶段任务卫星。该卫星承载业余无线电通信试验载荷,延续系列技术探索,配备相关通信设备支持全球业余无线电爱好者开展空间通信实验。作为英国参与业余航天的代表性项目,它推动了业余卫星通信技术发展,为低轨道业余卫星应用积累了实践经验,服务全球无线电爱好者的空间通信探索活动。

Basic Information
目录编号:
20437
目录名称:
OSCAR 14 (UOSAT 3)
国际标识:
1990-005B
轨道中心:
EARTH
卫星名称:
OSCAR 14 (UOSAT 3)
卫星全名:
--
卫星状态:
在轨 (已飞行13384 天)
发射日期:
1990-01-22 UTC
国别 :
英国 (GB)
星等 :
--
This satellite is enrolled in the Space Conjunction Data Service (SCDS) and the current flight risk assessment level is: High Risk
Orbit Information
数据来源 国际轨道数据 AOE轨道数据
星历时间 2026-09-14T05:16:06+0800
8小时前
查看轨道信息
2026-09-12T23:00:00+0800
1天前
查看轨道信息
半长轴 7158.907km 7158.908km
偏心率 0.0010466 0.0010529
轨道倾角 98.794° 98.795°
近地点辐角 9.815° 14.025°
升交点赤经 307.591° 306.309°
平近点角 163.416° 135.428°
近地点 773.277km 773.233km
远地点 788.263km 788.309km
周期 100.468分钟 100.468分钟
每日圈数 14.332857 14.332853
Detailed Information
使用方式:
暂无
2D Orbit Map
3D Orbit Map
Orbit Altitude Analysis Chart
Orbit Inclination Analysis Chart
Orbit Comprehensive Analysis Chart
View Comprehensive Chart
Conjunction Data List
Event ID Objects TCA Miss Dist (km) Collision Risk Probability Collision Risk Index (CRI) Action
CDM_260916-160602-043703-966721
2026-09-16T
16:06:33+0000
1.448 km
极远距离
7.465444E-6 低风险 0.52
CDM_260915-101802-043702-263924
2026-09-15T
10:18:06+0000
2.338 km
极远距离
1.996456E-6 低风险 0.41
CDM_260915-083202-043703-479724
2026-09-15T
08:32:35+0000
1.862 km
极远距离
1.364224E-6 低风险 0.38
Miss Distance Evolution Trend with All Objects Subscribe to Flight Safety Assessment
Collision Probability Evolution Trend with All Objects Subscribe to Flight Safety Assessment